IZ5MMH-8 Weather Reports


Display with metric or nautical units.
time (UTC)temp
F
wind
direction
speed
MPH
gust
MPH
rain 1hr
in
rain 24hr
in
rain mn
in
humidity
%
barometer
mb
20260507213606 52 0.0 0.0 0.00 0.00 0.00 1014.3
20260507212606 52 0.0 0.0 0.00 0.00 0.00 1014.3
20260507211606 52 0.0 0.0 0.00 0.00 0.00 1014.3
20260507210606 52 0.0 0.0 0.00 0.00 0.00 1014.3
20260507205606 53 0.0 0.0 0.00 0.00 0.00 1014.3
20260507204606 53 0.0 0.0 0.00 0.00 0.00 1014.2
20260507203606 53 0.0 0.0 0.00 0.00 0.00 1014.2
20260507202608 53 0.0 0.0 0.00 0.00 0.00 1014.1
20260507201606 53 0.0 0.0 0.00 0.00 0.00 1014.2
20260507200606 54 0.0 0.0 0.00 0.00 0.00 1014.3
20260507195606 54 0.0 0.0 0.00 0.00 0.00 1014.1
20260507194606 55 0.0 0.0 0.00 0.00 0.00 1014.0
20260507193606 56 0.0 0.0 0.00 0.00 0.00 1014.1
20260507192606 56 0.0 0.0 0.00 0.00 0.00 1013.9
20260507191606 57 0.0 0.0 0.00 0.00 0.00 1013.9
20260507190606 57 0.0 0.0 0.00 0.00 0.00 1013.9
20260507185606 59 0.0 0.0 0.00 0.00 0.00 1013.8
20260507184605 60 0.0 0.0 0.00 0.00 0.00 1013.8
20260507183606 61 0.0 0.0 0.00 0.00 0.00 1013.8
20260507182605 63 0.0 0.0 0.00 0.00 0.00 1013.8
20260507181606 64 0.0 0.0 0.00 0.00 0.00 1013.6
20260507180605 66 0.0 0.0 0.00 0.00 0.00 1013.6
20260507175606 68 0.0 0.0 0.00 0.00 0.00 1013.5
20260507174607 70 0.0 0.0 0.00 0.00 0.00 1013.4
20260507173606 75 0.0 0.0 0.00 0.00 0.00 1013.2
20260507172606 83 0.0 0.0 0.00 0.00 0.00 1013.1
20260507171605 90 0.0 0.0 0.00 0.00 0.00 1012.8
20260507170607 93 0.0 0.0 0.00 0.00 0.00 1012.7
20260507165607 93 0.0 0.0 0.00 0.00 0.00 1012.7
20260507164607 90 0.0 0.0 0.00 0.00 0.00 1012.9
20260507163606 94 0.0 0.0 0.00 0.00 0.00 1012.8
20260507162606 96 0.0 0.0 0.00 0.00 0.00 1012.5
20260507161605 99 0.0 0.0 0.00 0.00 0.00 1012.6
20260507160606 99 0.0 0.0 0.00 0.00 0.00 1012.7
20260507155605 99 0.0 0.0 0.00 0.00 0.00 1012.7
20260507154605 97 0.0 0.0 0.00 0.00 0.00 1012.7
20260507153606 94 0.0 0.0 0.00 0.00 0.00 1012.8
20260507152606 91 0.0 0.0 0.00 0.00 0.00 1012.8
20260507151606 93 0.0 0.0 0.00 0.00 0.00 1012.9
20260507150605 96 0.0 0.0 0.00 0.00 0.00 1012.9
20260507145605 97 0.0 0.0 0.00 0.00 0.00 1012.8
20260507144606 95 0.0 0.0 0.00 0.00 0.00 1013.1
20260507143605 96 0.0 0.0 0.00 0.00 0.00 1013.1
20260507142605 97 0.0 0.0 0.00 0.00 0.00 1013.1
20260507141606 96 0.0 0.0 0.00 0.00 0.00 1013.3
20260507140606 95 0.0 0.0 0.00 0.00 0.00 1013.3
20260507135605 92 0.0 0.0 0.00 0.00 0.00 1013.4
20260507134605 91 0.0 0.0 0.00 0.00 0.00 1013.6
20260507133606 91 0.0 0.0 0.00 0.00 0.00 1013.7
20260507132605 86 0.0 0.0 0.00 0.00 0.00 1014.0
20260507131605 87 0.0 0.0 0.00 0.00 0.00 1014.0
20260507130605 90 0.0 0.0 0.00 0.00 0.00 1014.1
20260507125605 90 0.0 0.0 0.00 0.00 0.00 1014.0
20260507124605 92 0.0 0.0 0.00 0.00 0.00 1014.0
20260507123606 89 0.0 0.0 0.00 0.00 0.00 1014.1
20260507122605 85 0.0 0.0 0.00 0.00 0.00 1014.2
20260507121605 82 0.0 0.0 0.00 0.00 0.00 1014.3
20260507120605 80 0.0 0.0 0.00 0.00 0.00 1014.2
20260507115605 80 0.0 0.0 0.00 0.00 0.00 1014.3
20260507114605 80 0.0 0.0 0.00 0.00 0.00 1014.3
20260507113605 78 0.0 0.0 0.00 0.00 0.00 1014.5
20260507112605 78 0.0 0.0 0.00 0.00 0.00 1014.6
20260507111605 76 0.0 0.0 0.00 0.00 0.00 1014.9
20260507110605 76 0.0 0.0 0.00 0.00 0.00 1014.8
20260507105605 77 0.0 0.0 0.00 0.00 0.00 1014.8
20260507104605 77 0.0 0.0 0.00 0.00 0.00 1015.0
20260507103605 75 0.0 0.0 0.00 0.00 0.00 1015.0
20260507102605 76 0.0 0.0 0.00 0.00 0.00 1015.2
20260507101605 78 0.0 0.0 0.00 0.00 0.00 1015.0
20260507100605 78 0.0 0.0 0.00 0.00 0.00 1015.2
20260507095604 82 0.0 0.0 0.00 0.00 0.00 1015.0
20260507094605 84 0.0 0.0 0.00 0.00 0.00 1014.9
20260507093605 83 0.0 0.0 0.00 0.00 0.00 1014.9
20260507092605 83 0.0 0.0 0.00 0.00 0.00 1014.8
20260507091605 80 0.0 0.0 0.00 0.00 0.00 1014.8
20260507090605 80 0.0 0.0 0.00 0.00 0.00 1014.8
20260507085605 78 0.0 0.0 0.00 0.00 0.00 1014.9
20260507084605 77 0.0 0.0 0.00 0.00 0.00 1014.9
20260507083605 74 0.0 0.0 0.00 0.00 0.00 1015.1
20260507082605 72 0.0 0.0 0.00 0.00 0.00 1015.1
20260507081605 70 0.0 0.0 0.00 0.00 0.00 1015.2
20260507080604 70 0.0 0.0 0.00 0.00 0.00 1015.2
20260507075605 70 0.0 0.0 0.00 0.00 0.00 1015.3
20260507074605 68 0.0 0.0 0.00 0.00 0.00 1015.4
20260507073605 67 0.0 0.0 0.00 0.00 0.00 1015.4
20260507072604 65 0.0 0.0 0.00 0.00 0.00 1015.7
20260507071605 63 0.0 0.0 0.00 0.00 0.00 1015.6
20260507070605 62 0.0 0.0 0.00 0.00 0.00 1015.6
20260507065605 61 0.0 0.0 0.00 0.00 0.00 1015.6
20260507064605 60 0.0 0.0 0.00 0.00 0.00 1015.5
20260507063605 59 0.0 0.0 0.00 0.00 0.00 1015.4
20260507062604 58 0.0 0.0 0.00 0.00 0.00 1015.5
20260507061605 58 0.0 0.0 0.00 0.00 0.00 1015.4
20260507060604 57 0.0 0.0 0.00 0.00 0.00 1015.3
20260507055604 56 0.0 0.0 0.00 0.00 0.00 1015.3
20260507054604 55 0.0 0.0 0.00 0.00 0.00 1015.2
20260507053605 54 0.0 0.0 0.00 0.00 0.00 1015.3
20260507052604 53 0.0 0.0 0.00 0.00 0.00 1015.2
20260507051604 52 0.0 0.0 0.00 0.00 0.00 1015.1
20260507050604 51 0.0 0.0 0.00 0.00 0.00 1015.1
20260507045605 51 0.0 0.0 0.00 0.00 0.00 1015.0
20260507044604 50 0.0 0.0 0.00 0.00 0.00 1015.1
20260507043604 50 0.0 0.0 0.00 0.00 0.00 1015.0
20260507042603 49 0.0 0.0 0.00 0.00 0.00 1014.9
20260507041604 49 0.0 0.0 0.00 0.00 0.00 1014.8
20260507040604 49 0.0 0.0 0.00 0.00 0.00 1014.8
20260507035605 49 0.0 0.0 0.00 0.00 0.00 1014.6
20260507034604 49 0.0 0.0 0.00 0.00 0.00 1014.7
20260507033604 49 0.0 0.0 0.00 0.00 0.00 1014.6
20260507032604 49 0.0 0.0 0.00 0.00 0.00 1014.6
20260507031603 49 0.0 0.0 0.00 0.00 0.00 1014.7
20260507030603 49 0.0 0.0 0.00 0.00 0.00 1014.8
20260507025603 49 0.0 0.0 0.00 0.00 0.00 1014.7
20260507024604 49 0.0 0.0 0.00 0.00 0.00 1014.6
20260507023604 50 0.0 0.0 0.00 0.00 0.00 1014.5
20260507022604 50 0.0 0.0 0.00 0.00 0.00 1014.5
20260507021604 50 0.0 0.0 0.00 0.00 0.00 1014.5
20260507020604 50 0.0 0.0 0.00 0.00 0.00 1014.5
20260507015604 51 0.0 0.0 0.00 0.00 0.00 1014.5
20260507014604 51 0.0 0.0 0.00 0.00 0.00 1014.5
20260507013604 51 0.0 0.0 0.00 0.00 0.00 1014.3
20260507012604 52 0.0 0.0 0.00 0.00 0.00 1014.3
20260507011603 52 0.0 0.0 0.00 0.00 0.00 1014.2
20260507010604 52 0.0 0.0 0.00 0.00 0.00 1014.3
20260507005603 53 0.0 0.0 0.00 0.00 0.00 1014.4
20260507004603 53 0.0 0.0 0.00 0.00 0.00 1014.4
20260507003603 53 0.0 0.0 0.00 0.00 0.00 1014.6
20260507002603 53 0.0 0.0 0.00 0.00 0.00 1014.4
20260507001603 54 0.0 0.0 0.00 0.00 0.00 1014.6
20260507000603 54 0.0 0.0 0.00 0.00 0.00 1014.7
20260506235604 54 0.0 0.0 0.00 0.00 0.00 1014.4
20260506234604 55 0.0 0.0 0.00 0.00 0.00 1014.4
20260506233604 58 0.0 0.0 0.00 0.00 0.00 1014.4
20260506232604 60 0.0 0.0 0.00 0.00 0.00 1014.3
20260506231603 61 0.0 0.0 0.00 0.00 0.00 1014.0
20260506230603 61 0.0 0.0 0.00 0.00 0.00 1013.8
20260506225604 61 0.0 0.0 0.00 0.00 0.00 1013.9
20260506224603 61 0.0 0.0 0.00 0.00 0.00 1014.0
20260506223603 60 0.0 0.0 0.00 0.00 0.00 1014.1
20260506222603 60 0.0 0.0 0.00 0.00 0.00 1014.3
20260506221604 61 0.0 0.0 0.00 0.00 0.00 1014.2
20260506220604 61 0.0 0.0 0.00 0.00 0.00 1014.2
20260506215604 61 0.0 0.0 0.00 0.00 0.00 1014.2
20260506214603 61 0.0 0.0 0.00 0.00 0.00 1014.1